Location: Sweet Grass
(48.9965°N, 111.9649°W)
Time: 13:40:05
(UTC+00:00)

Envisat - Pass Details

Date: 13 December 2022
Orbit: 763 x 765 km, 98.2° (Epoch: 06 February)

Event Time Altitude Azimuth Distance (km) Brightness Sun altitude
Rises 11:26:26 0° 17° (NNE) 3,246 6.5 -36.0°
Reaches altitude 10° 11:28:48 10° 22° (NNE) 2,314 5.7 -35.7°
Enters shadow 11:29:25 13° 23° (NNE) 2,083 5.5 -35.6°
